CAPE
5 3 3 2 0 1 0 0 0 0 2 4 4 3 4 2 0 0 0 0 0 0 0 0 0 0 0 0 0 209 106 76 25 60 103 294 151 49 38 109 93 149 146 203 189
1 3 1 2 0 1 0 0 0 0 0 2 5 4 1 0 0 0 0 0 0 0 0 0 0 0 0 0 0 172 28 88 40 41 127 358 154 24 30 24 127 127 101 143 101
2 3 3 0 0 0 0 1 0 0 1 1 1 5 2 0 0 0 0 0 0 0 0 0 0 0 0 0 4 183 116 180 5 7 151 226 89 0 16 35 80 134 144 129 179
3 1 3 1 1 1 0 0 0 0 1 0 1 3 0 0 0 0 0 0 0 0 0 0 0 0 0 0 0 371 623 215 84 10 105 106 115 128 80 68 67 132 147 177 220
3 2 3 3 3 3 2 1 3 1 0 0 2 1 0 0 0 0 66 0 0 0 0 0 0 0 0 0 40 210 586 489 281 61 117 112 123 173 105 243 41 124 158 174 214
2 1 0 1 2 2 3 2 2 2 0 2 2 0 0 0 0 0 0 0 0 0 0 0 0 0 0 0 58 461 381 214 42 62 53 30 7 93 217 292 68 91 108 142 215
1 1 0 1 1 1 2 2 2 2 0 0 1 0 0 0 0 0 0 0 0 0 0 0 0 0 0 12 396 329 246 138 150 2 6 3 0 40 144 165 78 87 72 68 111
0 0 0 2 3 3 3 2 2 2 0 2 0 0 0 0 0 0 0 0 0 0 0 0 0 0 0 13 35 199 59 59 134 99 9 68 5 42 130 73 18 69 49 52 130
1 1 3 1 2 3 4 2 1 1 2 0 0 0 0 0 0 0 0 0 0 0 0 0 0 0 0 0 0 0 0 107 82 11 4 48 70 23 44 30 34 15 10 29 167
3 4 0 0 0 0 0 0 0 0 0 0 0 0 0 0 0 0 0 0 0 0 0 0 0 0 0 0 0 0 63 104 51 0 0 7 31 17 3 83 11 11 22 32 117
3 4 0 0 0 0 0 0 0 0 0 0 0 0 0 0 0 0 0 0 0 0 0 0 0 0 0 0 0 70 122 84 56 7 0 7 9 1 0 2 88 98 37 91 134
4 3 1 0 0 1 0 0 0 0 0 0 0 0 0 0 0 0 0 0 0 0 0 0 0 0 0 0 29 145 201 127 125 47 54 41 49 37 6 0 44 73 48 53 81
2 4 0 0 1 0 0 0 0 0 0 0 0 0 0 0 0 0 0 0 0 0 0 0 0 0 0 0 118 108 144 97 102 120 56 55 9 10 5 21 68 50 70 14 19
0 1 1 0 0 0 0 0 0 0 0 0 0 0 0 0 0 0 0 0 0 0 0 0 0 0 0 0 3 68 265 226 172 122 74 14 0 1 5 12 34 26 50 0 24
1 0 0 3 0 0 0 0 0 0 0 0 0 0 0 0 0 0 0 0 0 0 0 0 0 0 0 0 1 229 282 273 161 23 34 10 33 0 0 0 8 3 30 6 23
1 0 0 0 1 0 0 0 0 0 0 0 0 0 0 0 0 0 0 0 0 0 0 0 0 0 0 35 94 398 151 109 85 4 0 29 19 6 0 0 0 1 46 35 32
0 0 0 0 0 0 0 0 0 0 0 0 0 0 0 0 0 0 0 0 0 0 0 0 0 709 736 599 431 238 87 20 19 8 0 24 34 2 0 0 0 0 9 39 17
0 0 0 0 0 0 0 0 0 0 0 0 0 0 0 0 0 0 0 0 0 0 0 0 0 1026 747 515 499 242 22 16 0 13 51 32 46 0 0 0 0 0 1 23 18
0 0 0 0 0 0 0 0 0 0 0 0 0 0 0 0 0 0 0 0 0 0 0 0 0 0 729 458 538 408 165 0 19 7 11 58 40 0 0 0 0 0 1 12 9
0 0 0 0 0 0 0 0 0 0 0 0 0 0 0 0 2 10 4 0 0 0 0 0 5 0 111 402 254 204 81 106 16 60 37 32 24 0 0 0 0 0 1 4 14
0 0 0 0 0 0 0 0 0 0 0 0 0 0 0 0 2 5 18 24 0 0 0 0 0 0 0 0 247 0 7 0 8 0 33 25 9 0 0 4 2 0 2 25 19
0 0 0 0 0 0 0 0 0 0 0 0 0 0 0 0 0 3 7 13 0 0 0 0 0 0 0 0 0 0 0 0 0 0 0 0 0 0 0 12 0 0 0 46 37
0 0 0 0 0 0 0 0 0 0 0 0 0 0 0 0 0 0 0 0 0 0 0 0 0 0 0 0 0 0 0 0 0 0 0 0 0 3 6 5 0 0 1 12 22
0 0 0 0 0 0 0 0 0 0 0 0 0 0 0 0 0 1 0 0 0 0 1 0 0 0 0 0 0 11 0 0 0 0 0 0 0 0 23 52 82 94 23 0 0
0 0 0 0 0 0 0 0 0 0 0 0 0 0 0 0 0 0 0 0 0 1 0 0 0 0 0 0 7 38 13 18 3 0 99 61 0 0 0 58 188 257 356 140 0
0 0 0 0 0 0 0 0 0 0 0 0 0 0 0 0 0 0 0 0 0 0 0 0 0 0 0 0 3 6 16 59 78 187 264 49 17 0 0 103 50 84 246 152 22
0 0 0 0 0 0 0 0 0 0 0 0 0 0 0 0 0 0 0 0 0 0 0 0 0 0 0 0 0 0 0 49 98 156 192 33 81 70 191 157 11 49 61 27 46
CIN
0 0 0 0 0 0 0 0 0 0 0 0 0 0 0 0 0 0 0 0 0 0 0 0 0 0 0 0 0 -90 -50 -24 -53 -29 -14 -28 -49 -92 -84 -93 -81 -60 -108 -94 -95
0 0 0 0 0 0 0 -1 0 0 0 0 0 0 0 0 0 0 0 0 0 0 0 0 0 0 0 0 0 -25 -60 -77 -91 -32 -21 -24 -28 -126 -71 -70 -75 -82 -105 -101 -117
0 0 0 0 0 0 0 0 0 0 0 0 0 0 0 0 0 0 0 0 0 0 0 0 0 0 0 0 -83 -59 -34 -57 -73 -61 -24 -40 -18 0 -62 -75 -90 -132 -96 -108 -81
0 0 0 0 0 0 0 0 0 0 -1 0 0 0 0 0 0 0 0 0 0 0 0 0 0 0 0 0 0 -8 -8 -86 -129 -110 -21 -25 -28 -47 -38 -50 -78 -106 -124 -112 -111
0 0 0 0 0 0 0 0 0 0 0 0 0 0 0 0 0 0 -425 0 0 0 0 0 0 0 0 0 -50 -24 -18 -78 -98 -104 -37 -54 -40 -26 -54 -24 -78 -88 -93 -115 -99
0 0 0 0 0 0 0 0 0 0 0 0 0 0 0 0 0 0 0 0 0 0 0 0 0 0 0 0 -30 -56 -64 -75 -119 -101 -80 -66 -108 -45 -26 -29 -51 -74 -86 -97 -94
0 0 0 0 0 0 0 0 0 0 0 0 0 0 0 0 0 0 0 0 0 0 0 0 0 0 0 -23 -75 -77 -52 -58 -19 -3 -49 -88 0 -52 -75 -24 -58 -56 -64 -93 -116
0 0 0 0 0 0 0 0 0 0 0 0 0 0 0 0 0 0 0 0 0 0 0 0 0 0 0 -55 -92 -50 -35 -9 -4 -7 -27 -15 -39 -14 -51 -29 -52 -42 -74 -89 -105
0 0 0 0 0 0 0 0 0 0 0 0 0 0 0 0 0 0 0 0 0 0 0 0 0 0 0 0 0 0 -8 -20 -4 -15 -25 -18 -18 -59 -85 -22 -40 -50 -86 -85 -73
0 0 0 0 0 0 0 0 0 0 0 0 0 0 0 0 0 0 0 0 0 0 0 0 0 0 0 0 0 0 -43 -19 -4 -3 0 -10 -7 -35 -30 -45 -43 -63 -73 -68 -88
0 0 0 0 0 0 0 0 0 0 0 0 0 0 0 0 0 0 0 0 0 0 0 0 0 0 0 0 0 -65 -50 -40 -9 -39 -14 -65 -20 -34 0 -21 -65 -90 -70 -86 -107
0 0 0 0 0 0 0 0 0 0 0 0 0 0 0 0 0 0 0 0 0 0 0 0 0 0 0 0 -42 -48 -62 -25 -3 -9 -4 -13 -25 -51 -24 0 -122 -107 -91 -74 -101
0 0 0 0 0 0 0 0 0 0 0 0 0 0 0 0 0 0 0 0 0 0 0 0 0 0 0 0 -61 -61 -53 -92 -28 0 -2 -1 -18 -27 -44 -38 -69 -118 -112 -86 -148
0 0 0 0 0 0 0 0 0 0 0 0 0 0 0 0 0 0 0 0 0 0 0 0 0 0 0 0 -11 -52 -43 -61 -34 -35 0 -5 0 -9 -36 -45 -58 -101 -96 0 -135
0 0 0 -1 0 0 0 0 0 0 0 0 0 0 0 0 0 0 0 0 0 0 0 0 0 0 0 0 -7 -64 -71 -54 -57 -89 -11 -12 -1 0 -47 0 -104 -109 -92 -52 -114
0 0 0 0 0 0 0 0 0 0 0 0 0 0 0 0 0 0 0 0 0 0 0 0 0 0 0 -44 -80 -153 -142 -116 -112 -66 0 -25 -19 -45 0 0 0 -87 -79 -115 -137
0 0 0 0 0 0 0 0 0 0 0 0 0 0 0 0 0 0 0 0 0 0 0 0 0 -156 -137 -161 -146 -150 -144 -102 -46 -20 0 -67 -16 -88 0 -64 0 0 -79 -93 -121
0 0 0 0 0 0 0 0 0 0 0 0 0 0 0 0 0 0 0 0 0 0 0 0 0 -101 -104 -170 -131 -175 -173 -26 -14 -27 -42 -81 -87 0 0 0 0 -2 -39 -97 -117
0 0 0 0 0 0 0 0 0 0 0 0 0 0 0 0 0 0 0 0 0 0 0 -4 -8 0 -89 -177 -160 -118 -111 0 -154 -220 -97 -125 -201 -1 0 0 0 0 -71 -127 -94
0 0 0 0 0 0 0 0 0 0 0 0 0 0 0 0 -18 -50 -76 0 0 0 0 0 -38 0 -41 -88 -137 -97 -206 -77 -77 -40 -42 -126 -206 -1 0 0 0 -7 -81 -168 -131
0 0 0 0 0 0 0 0 0 0 0 0 0 0 0 0 -79 -93 -70 -62 0 0 0 0 0 0 0 0 -64 0 -23 0 -40 0 -41 -49 -118 0 0 -314 -381 0 -99 -159 -144
0 0 0 0 0 0 0 0 0 0 0 0 0 0 0 0 0 -102 -75 -106 0 0 0 0 0 0 0 0 0 0 0 0 0 0 0 -5 0 0 0 -338 0 0 0 -128 -146
0 0 0 0 0 0 0 0 0 0 0 0 0 0 0 0 0 0 -25 0 0 0 0 0 0 0 0 0 0 0 0 0 0 0 0 0 0 -477 -432 -224 0 0 -201 -145 -136
0 0 0 0 0 0 0 0 0 0 0 0 0 0 0 0 0 -23 0 0 0 0 -178 0 0 0 0 0 0 -153 0 0 0 0 0 0 0 0 -370 -298 -205 -164 -141 0 0
0 0 0 0 0 0 0 0 0 0 0 0 0 0 0 0 0 0 0 0 0 -50 0 0 0 0 0 0 -195 -177 -205 -235 -172 0 -130 -182 0 0 0 -324 -214 -188 -175 -123 0
0 0 0 0 0 0 0 0 0 0 0 0 0 0 0 0 0 0 0 0 0 0 0 0 0 0 0 0 -208 -222 -236 -215 -203 -162 -114 -181 -268 0 -7 -243 -370 -339 -219 -252 -257
0 0 0 0 0 0 0 0 0 0 0 0 0 0 0 0 0 0 0 0 0 0 0 0 0 0 0 0 0 0 0 -218 -192 -165 -158 -202 -184 -301 -196 -218 -412 -332 -276 -237 -206
Wind_Speed
11 11 11 11 11 11 10 10 10 10 10 11 11 12 12 14 14 3 6 10 8 9 2 2 3 2 2 2 3 3 4 3 2 2 1 1 6 7 7 12 5 1 9 12 16
12 13 12 12 12 11 11 10 10 10 10 11 11 11 11 12 3 7 12 9 12 4 1 2 4 6 2 3 4 4 3 8 5 2 2 5 1 8 8 11 11 12 14 19 19
12 12 13 13 12 12 11 11 10 10 10 10 10 10 11 8 3 8 6 17 13 7 3 4 1 2 2 2 3 6 3 6 12 8 8 4 4 9 18 8 17 19 21 19 19
12 12 12 13 12 12 12 11 11 10 9 9 10 10 11 2 3 0 2 15 13 6 2 5 4 4 3 4 4 4 2 8 8 11 6 5 1 6 3 4 16 19 22 18 17
12 12 12 12 12 12 12 12 11 10 9 8 9 9 3 2 9 4 6 16 8 6 5 4 4 3 2 2 4 5 3 6 3 10 6 7 7 4 3 1 13 18 19 18 14
13 13 12 13 13 12 12 11 12 11 8 7 7 7 1 3 3 5 11 7 6 6 5 5 5 3 2 4 3 3 7 8 10 6 4 8 5 8 4 5 19 19 18 15 14
14 14 14 14 14 14 14 13 13 10 7 6 5 3 1 10 4 6 8 5 4 5 6 3 2 5 3 2 3 7 8 8 9 3 4 9 5 5 10 7 21 21 17 15 14
15 15 15 15 15 15 15 15 14 10 6 5 4 1 7 4 2 2 5 2 4 3 2 5 5 0 2 1 6 3 4 4 6 8 2 6 4 9 13 12 19 20 16 14 17
14 16 16 16 16 16 16 19 14 6 4 4 2 1 9 5 4 7 8 4 5 3 1 4 5 4 1 5 4 7 3 6 2 6 7 5 2 3 7 14 18 16 17 16 14
14 15 17 18 17 18 21 14 4 3 2 4 4 3 6 4 3 4 4 7 3 5 2 3 4 3 3 5 4 4 4 6 3 3 8 7 6 1 9 4 11 6 14 16 16
16 15 18 18 17 16 11 2 4 3 3 6 5 4 6 7 2 3 5 6 2 3 4 2 5 5 9 7 5 6 6 9 4 1 5 5 3 6 5 8 1 3 9 18 19
17 16 19 19 17 14 2 2 4 4 9 8 6 7 7 2 3 1 5 4 4 5 3 6 4 7 6 7 4 7 10 5 3 9 1 6 7 6 4 4 5 3 4 17 16
19 17 20 20 18 1 2 5 3 3 1 9 6 4 5 6 4 3 6 4 3 4 3 6 5 5 4 3 7 2 5 7 5 7 1 2 4 5 5 8 7 5 5 11 19
21 19 19 22 2 3 5 2 4 5 6 8 3 5 4 5 3 6 6 4 2 7 4 4 4 5 4 5 8 2 3 12 16 13 3 3 4 5 6 7 7 7 4 11 13
22 19 17 9 4 2 3 6 4 4 4 1 2 0 2 6 1 3 3 4 2 2 6 8 2 4 5 9 9 4 7 5 4 6 1 4 1 3 7 7 11 8 7 7 18
20 18 12 2 2 8 10 7 4 7 3 4 1 2 2 1 1 3 2 1 2 3 3 9 4 7 8 1 10 15 9 7 4 4 2 4 5 4 4 8 12 9 9 8 16
19 11 4 1 4 5 6 4 7 5 5 7 3 1 2 3 2 5 3 4 3 2 2 3 2 3 12 15 4 5 3 3 5 1 5 6 6 9 12 11 11 11 10 8 11
22 7 8 6 1 6 4 7 7 3 4 3 3 1 1 0 1 2 3 2 4 3 1 0 2 7 8 8 13 10 6 7 7 5 2 1 7 9 4 14 17 16 18 13 8
16 1 2 5 7 2 6 6 5 3 4 4 4 5 5 4 2 3 2 2 4 7 7 4 4 2 8 5 10 6 4 4 7 2 2 4 6 9 11 14 11 18 20 20 11
2 3 4 4 7 6 6 4 4 6 4 4 3 1 2 6 3 5 3 4 4 3 4 2 0 1 4 5 5 7 8 4 3 4 4 4 6 8 3 6 7 13 21 22 15
3 4 3 5 3 6 3 6 6 7 1 4 2 3 2 1 2 3 2 4 2 7 4 1 2 6 2 1 8 2 2 5 5 5 5 2 7 6 4 11 15 14 16 19 17
3 3 3 2 4 1 2 6 5 4 3 3 3 2 1 2 2 4 3 3 6 2 4 4 4 0 2 6 1 4 3 3 7 3 1 2 6 13 2 8 10 12 14 18 17
2 3 5 3 2 3 6 6 6 3 1 1 4 2 3 2 2 2 3 6 6 5 3 2 4 4 9 10 8 8 6 3 5 4 0 2 5 16 12 7 3 10 9 11 16
2 3 5 4 1 4 2 8 3 1 3 5 2 3 5 8 6 2 5 4 6 2 6 8 3 5 5 6 3 6 6 5 4 5 2 3 8 16 16 9 8 5 6 9 10
1 3 3 3 4 4 3 4 3 3 3 4 5 5 4 3 5 5 5 8 5 9 6 6 4 1 1 6 10 6 4 8 7 2 3 2 2 8 10 8 7 6 2 8 13
1 2 5 2 3 5 3 2 5 3 4 1 7 4 7 5 3 2 3 2 1 6 5 4 3 1 4 4 10 9 7 6 5 5 3 4 3 7 7 6 8 10 10 5 10
3 3 3 3 2 1 3 6 5 4 4 6 10 6 4 3 6 4 3 2 1 2 2 3 4 3 2 1 4 6 5 3 3 2 2 4 1 5 9 10 12 9 12 10 8
Wind_Direction
355 354 350 347 344 342 340 339 336 330 325 324 324 325 328 326 318 167 240 221 190 219 38 74 151 187 130 126 182 46 110 173 224 304 177 201 163 147 92 134 129 215 128 137 134
356 354 350 347 344 340 338 335 334 331 328 326 325 326 325 329 300 255 240 214 211 136 197 137 154 151 132 202 198 169 148 201 160 114 113 284 216 116 127 151 112 93 111 135 145
353 351 348 347 344 340 337 332 330 327 326 326 324 322 319 325 302 248 212 201 200 199 202 124 76 159 163 216 207 184 219 148 173 166 195 195 99 139 148 157 152 143 144 145 156
350 347 348 347 342 339 337 332 325 321 321 322 321 322 316 285 134 281 132 186 185 169 144 132 132 134 187 208 228 178 256 159 160 189 197 184 14 106 118 179 150 151 150 153 161
348 341 339 339 335 331 333 330 321 319 317 316 315 323 350 324 253 319 58 143 143 143 173 147 122 149 222 234 163 163 128 48 33 173 136 124 64 55 208 139 141 145 156 166 158
345 340 340 337 330 327 326 324 317 313 313 308 311 323 300 318 247 127 108 120 143 149 170 142 165 215 299 276 181 82 86 82 40 65 142 108 87 352 206 200 152 158 168 167 160
343 340 338 333 329 325 322 311 308 303 295 292 290 284 35 233 68 99 119 167 182 179 130 201 122 57 329 357 158 147 103 70 33 23 94 123 91 219 291 253 169 167 172 170 162
341 338 334 329 328 323 315 306 301 291 275 255 259 232 250 235 318 212 177 212 192 216 129 157 174 172 218 33 21 33 78 102 23 360 11 333 164 227 262 184 178 176 169 172 169
337 334 334 335 330 324 318 310 294 261 232 184 172 123 277 307 184 219 160 180 130 104 227 278 142 179 333 99 39 6 118 103 127 42 26 359 121 20 306 189 185 176 168 178 163
336 335 340 336 334 332 328 318 99 141 181 194 249 336 286 310 238 170 172 135 141 135 161 163 74 102 45 81 210 168 134 93 117 323 40 334 125 49 16 340 196 172 161 167 163
333 338 336 333 330 336 349 28 6 3 154 226 225 245 272 289 212 176 157 121 76 78 134 184 98 176 202 173 174 140 129 115 98 212 85 301 279 293 65 291 186 2 179 164 170
328 329 334 330 326 325 315 91 204 156 310 235 245 267 269 129 309 153 118 119 129 209 120 26 219 219 156 186 145 150 123 82 97 158 166 210 272 290 277 267 288 279 195 170 157
328 326 330 326 317 62 205 234 214 338 125 298 193 212 224 143 215 267 131 159 156 146 172 163 234 145 183 157 121 114 167 170 169 181 308 118 261 198 237 217 237 247 255 180 163
325 327 330 327 326 327 263 213 291 183 58 284 292 260 175 153 288 224 160 143 46 193 178 227 235 190 199 204 117 223 217 169 158 150 216 196 277 190 185 228 212 220 216 175 176
319 324 327 332 297 221 293 310 284 64 44 267 259 272 62 135 295 331 130 54 224 209 90 249 259 168 189 210 148 168 100 151 148 102 130 171 284 253 145 228 232 225 195 193 170
319 321 324 97 240 247 290 313 69 41 10 338 164 242 37 325 254 93 135 69 184 232 190 233 221 170 211 127 149 124 97 85 82 91 359 180 183 261 197 208 206 212 191 190 168
315 299 260 251 231 304 305 44 45 91 322 320 251 33 156 275 18 138 169 200 164 29 339 314 236 101 105 92 44 90 103 50 40 16 227 196 176 229 197 182 173 196 204 176 185
321 301 217 225 293 354 38 46 60 251 291 292 9 358 44 116 28 224 104 331 242 161 208 147 14 183 169 171 172 164 183 147 167 211 185 39 231 251 234 197 179 185 195 169 186
320 311 250 262 190 139 68 54 212 253 248 343 18 30 333 341 79 60 64 242 244 194 178 144 278 291 180 151 139 215 209 169 106 7 73 220 280 288 185 184 205 206 183 166 179
351 354 269 133 161 67 68 241 243 207 308 54 45 79 318 339 58 60 50 276 327 58 144 311 255 267 240 103 288 157 163 88 350 141 234 271 279 246 160 200 199 185 179 163 166
33 32 245 170 92 50 142 232 276 264 246 86 9 41 350 108 32 106 191 278 8 351 79 144 91 290 69 150 190 118 254 54 109 124 155 257 262 250 208 170 176 186 181 169 165
7 27 316 90 60 42 191 195 245 305 42 46 110 115 127 3 17 44 354 227 318 54 6 342 118 303 187 301 118 127 100 146 122 221 177 202 275 338 261 165 165 171 178 176 178
25 261 312 78 156 289 294 278 215 219 353 84 19 39 51 51 90 356 346 317 33 46 338 321 26 359 357 349 354 53 344 50 94 78 171 153 288 360 13 48 122 159 173 190 181
25 1 320 52 107 144 347 271 234 122 89 81 46 77 59 28 8 76 2 349 350 52 21 84 41 122 172 234 205 61 353 18 107 82 202 266 338 348 358 16 17 58 156 172 193
54 260 197 302 319 329 158 268 220 127 54 60 23 77 115 68 20 13 354 348 344 357 34 84 88 52 131 91 81 89 65 32 63 59 97 318 62 338 338 336 358 313 273 189 180
135 21 353 295 301 345 330 312 200 150 131 85 122 124 105 119 148 283 6 1 271 336 44 5 143 109 49 38 90 71 20 62 53 26 81 105 28 351 305 331 22 24 21 38 165
317 321 113 265 305 63 256 264 239 125 7 157 152 114 97 170 186 193 183 85 123 150 85 70 109 79 218 222 243 28 346 40 96 12 267 70 252 353 29 31 32 38 52 49 50